Location: Newark
(13.8117°N, 3.6025°W)
Time: 23:06:11
(UTC+00:00)

Vanguard 2 - Pass Details

Date: 25 August 2019
Orbit: 554 x 2937 km, 32.9° (Epoch: 19 September)

Event Time Altitude Azimuth Distance (km) Brightness Sun altitude
Rises 14:28:49 0° 310° (NW) 3,698 11.4 57.6°
Reaches altitude 10° 14:31:46 10° 326° (NW) 3,053 11.0 56.9°
Maximum altitude 14:37:47 23° 17° (NNE) 2,795 10.6 55.4°
Drops below altitude 10° 14:46:19 10° 64° (ENE) 4,497 11.2 53.3°
Sets 14:51:56 0° 77° (ENE) 5,952 11.7 52.0°
